CZ-3B DEB, 41119

Orbit data source: Space-Track

CZ-3B DEB, 41119 is space debris in HEO originally from a launch on Mon, 19 Dec 2011 UTC launched from the Xichang Space Center, China (XSC). Debris objects in space refer to the collection of defunct objects orbiting the Earth. Examples of debris include non-operational satellites, rocket bodies, and fragments generated from explosions, collisions, or faulty payload assembly.

Loading next visibility...
Identifier
41119, 2011-077AJ
Orbit
HEO
Last TLE update
2 days ago
Origin
Manufacturer
CALT
Mission
Spacecraft
Bus & Motor
Unknown
Mass
Unknown
Launch date (UTC)
2011-12-19 (14 years ago)
Launch vehicle
Unknown
Launch site
Xichang Space Center, China (XSC)
Object type
Payload
Rocket body
Debris
Shape & HBR
Unknown
Radar Cross Section
Medium (>0.1 m² and <1 m²)

Expand to show TLE details & history

TLE from 2 days ago
0 CZ-3B DEB
1 41119U 11077AJ  25180.80681341 -.00000078  00000-0  00000-0 0  9995
2 41119  21.4704  66.3598 7276665 134.0869 315.0869  1.69774146 65012
Epoch: 2025-06-29T19:21Z
TLE epoch observation values (Epoch: 2025-06-29T19:21:48.678Z)
Latitude
0.00003°
Longitude
-142.25424°
Altitude
21,978.344 km
Speed
3.832 km/s
True Right ascension
04h 25m 17s
True Declination
0° 00' 00"
Sunlit
Object was in daylight at epoch
Visualization orbit readout
Latitude
-14.30455°
Longitude
177.12019°
Altitude
44,688.633 km
Speed
1.477 km/s
Apparent Right ascension
02h 05m 18s
Apparent Declination
-18° 56' 53"
Sunlit
Object is in daylight
Visualization observer readout
Local Sidereal Time
20:36:36
Azimuth
109.492° ESE
Elevation
-6.292°
Doppler factor
1
Orbital elements
Apogee altitude
44,908.167 km
Perigee altitude
1,706.166 km
Semi-major axis
29,685.303 km
Eccentricity
0.72767
Inclination
21.4704°
RAAN
66.3598°
Arg. of periapsis
134.0869°
True anomaly
Unknown
Mean anomaly
315.0869°
Eccentric anomaly
Unknown
Mean motion
0.42436 °/min
Orbital period
848.34 mins
BSTAR
0
Loading maneuver chart data...
Loading SW <> Apogee altitude chart data...
Loading historical data...
Loading historical data...
Loading historical data...
Loading historical data...
Loading historical data...
Loading historical data...
Loading historical data...

CZ-3B DEB Visibility forecast

Observer location: undefined°, undefined°

Span
Click to sort rows by Start time (UTC) header in descending order
Start Az.
Max El. time (UTC)
Max El. Az.
Max El.
End time (UTC)
End Az.
204 mins2025-07-01 11:17:23.859Z120.334° SE2025-07-01 13:41:23.859Z122.937° SE19.556°2025-07-01 14:41:23.859Z104.093° ESE
|